Location: Bratislava
(0.0000°N, 17.1167°E)
Time: 04:42:11
(UTC+01:00)

Cosmos 2150 Rocket - Pass Details

Date: 24 January 2021
Orbit: 748 x 808 km, 74.0° (Epoch: 06 March)

Event Time Altitude Azimuth Distance (km) Brightness Sun altitude
Rises 18:17:06 0° 179° (S) 3,208 7.5 -3.2°
Reaches altitude 10° 18:19:36 10° 171° (S) 2,275 6.6 -3.7°
Maximum altitude 18:24:24 40° 102° (ESE) 1,092 4.5 -4.9°
Drops below altitude 10° 18:29:10 10° 33° (NNE) 2,256 6.0 -6.0°
Sets 18:31:37 0° 26° (NNE) 3,178 6.8 -6.6°
